Home > Weather > Iráklion > Past weeks

Flag for Greece Past Weather in Iráklion, Crete, Greece — Yesterday and Last 2 Weeks

Now
84 °F

Sunny.


Feels Like: 87 °F
Forecast: 76 / 84 °F
Wind: 5 mph from Northwest

Location: Heraklion Airport

Current Time: Aug 30, 2016 at 10:31:53 AM

Latest Report: Aug 30, 2016 at 9:50 AM


Visibility: 10 mi

Pressure: 29.92 "Hg

Humidity: 58%

Dew Point: 68 °F

Location of IráklionLocation

Past Weather in Iráklion — Graph

°F

Iráklion Temperature Yesterday

Maximum temperature yesterday: 82 °F (at 12:20 PM)
Minimum temperature yesterday: 73 °F (at 6:50 AM)
Average temperature yesterday: 79 °F

High & Low Weather Summary for the Past Weeks

 TemperatureHumidityPressure
High88 °F (Aug 18, 1:50 PM)94% (Aug 20, 12:50 AM)30.01 "Hg (Aug 20, 12:50 AM)
Low68 °F (Aug 17, 5:50 AM)12% (Aug 20, 1:50 PM)29.77 "Hg (Aug 18, 5:50 AM)
Average78 °F73%29.87 "Hg
* Reported Aug 15 9:20 AM — Aug 30 9:20 AM, Iráklion, Weather by CustomWeather, © 2016

Note: Actual official high and low records may vary slightly from our data, if they occured in-between our weather recording intervals... More about our weather records

Advertising

Iráklion Weather History for the Previous 24 Hours

Scroll right to see more
 ConditionsComfort  
Time TempWeatherWind HumidityBarometerVisibility
9:20 AM
Tue, Aug 30
81 °FSunny.No wind62%29.89 "Hg10 mi
8:50 AM77 °FSunny.5 mph54%29.86 "Hg10 mi
8:20 AM73 °FSunny.7 mph65%29.89 "Hg10 mi
7:50 AM73 °FSunny.7 mph65%29.89 "Hg10 mi
7:20 AM70 °FPassing clouds.8 mph64%29.89 "HgN/A
6:50 AM70 °FPassing clouds.8 mph64%29.89 "HgN/A
6:20 AM70 °FPassing clouds.8 mph69%29.89 "HgN/A
5:50 AM70 °FClear.8 mph69%29.89 "Hg10 mi
5:20 AM70 °FClear.6 mph73%29.89 "Hg10 mi
4:50 AM70 °FClear.8 mph73%29.89 "Hg10 mi
4:20 AM70 °FClear.6 mph78%29.89 "Hg10 mi
3:50 AM70 °FClear.5 mph78%29.89 "Hg10 mi
3:20 AM72 °FClear.7 mph69%29.89 "Hg10 mi
2:50 AM72 °FClear.8 mph69%29.89 "Hg10 mi
2:20 AM72 °FClear.8 mph73%29.92 "Hg10 mi
1:50 AM72 °FClear.6 mph73%29.92 "Hg10 mi
1:20 AM73 °FClear.6 mph74%29.92 "Hg10 mi
12:50 AM73 °FClear.5 mph74%29.92 "Hg10 mi
12:20 AM77 °FClear.8 mph65%29.92 "Hg10 mi
11:50 PM
Mon, Aug 29
77 °FClear.13 mph65%29.92 "Hg10 mi
11:20 PM77 °FClear.13 mph74%29.92 "Hg10 mi
10:50 PM77 °FClear.14 mph74%29.92 "Hg10 mi
10:20 PM79 °FClear.15 mph74%29.92 "Hg10 mi
9:50 PM79 °FClear.12 mph74%29.92 "Hg10 mi
9:20 PM79 °FPassing clouds.10 mph65%29.89 "HgN/A
8:50 PM79 °FPassing clouds.9 mph65%29.89 "HgN/A
8:20 PM79 °FPassing clouds.9 mph65%29.89 "HgN/A
7:50 PM79 °FPassing clouds.9 mph65%29.89 "HgN/A
7:20 PM81 °FPassing clouds.10 mph62%29.92 "HgN/A
6:50 PM81 °FPassing clouds.10 mph62%29.92 "HgN/A
6:20 PM81 °FPassing clouds.13 mph66%29.92 "HgN/A
5:50 PM81 °FPassing clouds.13 mph66%29.92 "HgN/A
5:20 PM82 °FPassing clouds.14 mph62%29.92 "HgN/A
4:50 PM82 °FPassing clouds.15 mph62%29.92 "HgN/A
4:20 PM82 °FPassing clouds.14 mph66%29.92 "HgN/A
3:50 PM82 °FPassing clouds.14 mph66%29.92 "HgN/A
3:20 PM82 °FPassing clouds.14 mph66%29.92 "HgN/A
2:50 PM82 °FPassing clouds.14 mph66%29.92 "HgN/A
2:20 PM81 °FScattered clouds.15 mph70%29.92 "HgN/A
1:50 PM81 °FScattered clouds.17 mph70%29.92 "HgN/A
1:20 PM81 °FScattered clouds.18 mph62%29.92 "HgN/A
12:50 PM81 °FScattered clouds.18 mph62%29.92 "HgN/A
12:20 PM82 °FScattered clouds.18 mph62%29.92 "HgN/A
11:50 AM81 °FScattered clouds.16 mph62%29.92 "HgN/A
11:20 AM81 °FScattered clouds.18 mph62%29.92 "HgN/A
10:50 AM81 °FScattered clouds.17 mph62%29.92 "HgN/A
10:20 AM79 °FScattered clouds.16 mph58%29.92 "HgN/A
Weather by CustomWeather, © 2016

See weather overviewHow to use our weather pages